User: anonymous   Login
Location: Cuiry
(49.3858°N, 3.7708°E)
Time: 23:38:07
(UTC+00:00)
Language:

Cosmos 968 Rocket - Orbit

View from above orbital plane
View from above orbital plane
View from above satellite
View from above satellite

Ground track
Ground track

The orbit is defined by the following mean orbital elements,

1 10521U          26065.61004109 +.00000000 +00000-0 +12133-3 0 00005
2 10521  74.0262 129.2204 0018983  85.3041 275.0283 14.42391907    09
Epoch (UTC): 06 March 2026 14:38:27
Eccentricity: 0.0018983
inclination: 74.0262°
perigee height: 737 km
apogee height: 764 km
right ascension of ascending node: 129.2204°
argument of perigee: 85.3041°
revolutions per day: 14.42391907
mean anomaly at epoch: 275.0283°

The dashed part of the orbit path shows where the satellite is in the earth's shadow,  

DLR